Location: Newark
(52.3735°N, 16.9806°E)
Time: 20:42:56
(UTC+00:00)

TIGRISAT - Pass Details

Date: 03 December 2022
Orbit: 601 x 684 km, 97.7° (Epoch: 03 February)

Event Time Altitude Azimuth Distance (km) Brightness Sun altitude
Exits shadow 18:11:57 23° 334° (NNW) 1,458 ? -31.0°
Maximum altitude 18:13:45 30° 297° (WNW) 1,232 ? -31.3°
Drops below altitude 10° 18:17:47 10° 237° (WSW) 2,134 ? -31.9°
Sets 18:20:15 0° 227° (SW) 3,047 ? -32.3°
